Regional Weather Roundup
Issued by NWS

Home | Current Version | Previous Version | Text Only | Print | Product List | Glossary On
Versions: 1 2 3 4 5 6 7 8 9 10 11 12 13 14 15 16 17 18 19 20 21 22 23 24 25 26 27 28 29 30 31 32 33 34 35 36 37 38 39 40 41 42 43 44 45 46 47 48 49 50
000
ASUS42 KFFC 230910
RWRGA
WEATHER ROUNDUP FOR GEORGIA
NATIONAL WEATHER SERVICE PEACHTREE CITY GA
500 AM EDT SUN JUL 23 2017

NOTE: "FAIR" INDICATES FEW OR NO CLOUDS BELOW 12,000 FEET WITH NO
SIGNIFICANT WEATHER AND/OR OBSTRUCTIONS TO VISIBILITY.

* = USE WITH CAUTION. THE STATIONS MARKED WITH AN ASTERISK MAY NOT
REPORT WEATHER SUCH AS PRECIPITATION, FOG, OR THUNDER AND ARE NOT
QUALITY CONTROLLED BY NWS.

THE REMARK "TC" DENOTES TEMPERATURE READING IN DEGREES CELSIUS.

GAZ001>058-231000-
NORTH GEORGIA

CITY           SKY/WX    TMP DP  RH WIND       PRES   REMARKS
ATLANTA        PTCLDY    75  73  93 W6        29.96S
ATHENS         CLEAR     75  73  93 SW3       29.94S
CHAMBLEE       MOCLDY    75  71  87 SW6       29.96R
PEACHTREE CITY CLEAR     73  72  96 CALM      29.97S
ROME           CLEAR     76  75  97 SW3       29.92F
WEST ATLANTA   MOCLDY    75  74  96 SW3       29.96R
GAINESVILLE    CLEAR     75  73  93 SW6       29.97S
CARTERSVILLE   PTCLDY    72  72 100 CALM      29.95S FOG


CITY           SKY/WX    TMP DP  RH WIND       PRES   REMARKS
MARIETTA       PTCLDY    74  71  92 CALM      29.96R
CANTON*        CLEAR     75  75 100 CALM      29.97S
$$

GAZ059>098-102>109-231000-
CENTRAL GEORGIA

CITY           SKY/WX    TMP DP  RH WIND       PRES   REMARKS
AUGUSTA-BUSH   CLEAR     79  74  84 SW6       29.91S
AUGUSTA-DANIEL CLEAR     80  72  76 VRB3      29.93S
COLUMBUS       CLEAR     78  72  81 W6        29.95F
MACON          CLEAR     76  72  87 W7        29.94S
ROBINS AFB     CLEAR     78  73  85 W3        29.93F


CITY           SKY/WX    TMP DP  RH WIND       PRES   REMARKS
LAGRANGE*      CLEAR     74  74  98 CALM      29.96S FOG
SYLVANIA*      CLEAR     77  76  96 CALM      29.95S
MILLEDGEVILLE* CLEAR     77  73  88 CALM      29.94R
$$

GAZ099>101-110>166-231000-
SOUTH GEORGIA

CITY           SKY/WX    TMP DP  RH WIND       PRES   REMARKS
SAVANNAH       CLEAR    N/A N/A N/A SW7       29.96S
VALDOSTA       PTCLDY    73  73 100 CALM      29.99R
ALMA           CLOUDY    77  75  93 SW3       29.96S
ST SIMONS      CLOUDY    78  76  93 SW9       29.98R
FT STEWART     CLOUDY    76  74  93 SW5       29.94R
ALBANY         CLEAR     76  75  97 S3        29.98F
HUNTER AFB     MOCLDY    76  74  94 S5        29.93S
MOODY AFB      PTCLDY    75  74  96 S5        29.98R
BRUNSWICK      CLOUDY    77  77 100 SW7       29.98S


CITY           SKY/WX    TMP DP  RH WIND       PRES   REMARKS
BAINBRIDGE*    CLEAR     77  77 100 CALM      29.97S
MOULTRIE*      CLEAR     77  73  88 CALM      29.99S
VIDALIA*       CLEAR     77  75  94 SW5       29.96S
WAYCROSS*      CLOUDY    79  79 100 SW8       29.97S
DOUGLAS*       MOCLDY    77  73  88 SW5       29.98S
$$



USA.gov is the U.S. government's official web portal to all federal, state and local government web resources and services.